Weather History for Newton, KS

Change the Weather History Date:

Sunday, September 15, 2013

  Actual Average Record
Temperature  
Mean Temperature 78 °F -  
Max Temperature 89 °F 78 °F 89 °F (1997)
Min Temperature 64 °F 57 °F 46 °F (2007)
Cooling Degree Days 12    
Growing Degree Days 28 (Base 50)    
Moisture  
Dew Point 60 °F    
Average Humidity 64    
Maximum Humidity 88    
Minimum Humidity 40    
Precipitation  
Precipitation 0.27 in - - ()
Sea Level Pressure  
Sea Level Pressure 30.01 in    
Wind  
Wind Speed 10 mph (South)    
Max Wind Speed 21 mph    
Max Gust Speed 38 mph    
Visibility 10 miles    
Events Thunderstorm    
Averages and records for this station are not official NWS values.
T = Trace of Precipitation, MM = Missing Value Source: NWS Daily Summary

Daily Weather History Graph

Daily Weather History Graph

Search for Another Location

Airport:

Trip Planner

Search our weather history database for the weather conditions in past years. The results will help you decide how hot, cold, wet, or windy it might be!

Date:

Astronomy

Sep. 15, 2013 Rise Set
Actual Time 7:11 AM CDT 7:36 PM CDT
Civil Twilight 6:44 AM CDT 8:02 PM CDT
Nautical Twilight 6:13 AM CDT 8:33 PM CDT
Astronomical Twilight 5:41 AM CDT 9:05 PM CDT
Moon 5:02 PM CDT (9/15) 2:53 AM CDT (9/15)
Length of Visible Light 13h 18m
Length of Day
12h 25m
Waxing Gibbous, 82% of the Moon is Illuminated
Sep 15
Waxing Gibbous
Sep 19
Full
Sep 26
Last Quarter
Oct 4
New
Oct 11
First Quarter

Hourly Weather History & Observations

Time (CDT) Temp. Heat Index Dew Point Humidity Pressure Visibility Wind Dir Wind Speed Gust Speed Precip Events Conditions
12:15 AM 69.8 °F - 57.2 °F 64% 29.97 in 10.0 mi South 10.4 mph - N/A   Clear
12:35 AM 69.8 °F - 57.2 °F 64% 29.97 in 10.0 mi South 9.2 mph - N/A   Clear
12:55 AM 68.0 °F - 57.2 °F 68% 29.97 in 10.0 mi South 9.2 mph - N/A   Clear
1:15 AM 68.0 °F - 57.2 °F 68% 29.97 in 10.0 mi South 10.4 mph - N/A   Clear
1:35 AM 68.0 °F - 57.2 °F 68% 29.97 in 10.0 mi South 9.2 mph - N/A   Clear
1:55 AM 68.0 °F - 57.2 °F 68% 29.97 in 10.0 mi South 9.2 mph - N/A   Clear
2:15 AM 68.0 °F - 57.2 °F 68% 29.97 in 10.0 mi South 10.4 mph - N/A   Clear
2:35 AM 69.8 °F - 57.2 °F 64% 29.96 in 10.0 mi South 10.4 mph - N/A   Clear
2:55 AM 69.8 °F - 57.2 °F 64% 29.97 in 10.0 mi South 10.4 mph - N/A   Clear
3:15 AM 69.8 °F - 57.2 °F 64% 29.97 in 10.0 mi South 10.4 mph - N/A   Clear
3:35 AM 68.0 °F - 57.2 °F 68% 29.96 in 10.0 mi South 9.2 mph - N/A   Clear
3:55 AM 68.0 °F - 57.2 °F 68% 29.96 in 10.0 mi South 8.1 mph - N/A   Clear
4:15 AM 66.2 °F - 57.2 °F 73% 29.96 in 10.0 mi South 8.1 mph - N/A   Clear
4:35 AM 66.2 °F - 57.2 °F 73% 29.97 in 10.0 mi South 9.2 mph - N/A   Clear
4:55 AM 68.0 °F - 57.2 °F 68% 29.97 in 10.0 mi South 8.1 mph - N/A   Scattered Clouds
5:15 AM 68.0 °F - 57.2 °F 68% 29.96 in 10.0 mi South 9.2 mph - N/A   Scattered Clouds
5:35 AM 68.0 °F - 57.2 °F 68% 29.97 in 10.0 mi South 10.4 mph - N/A   Clear
5:55 AM 68.0 °F - 57.2 °F 68% 29.97 in 10.0 mi South 11.5 mph - N/A   Clear
6:15 AM 68.0 °F - 57.2 °F 68% 29.97 in 10.0 mi South 9.2 mph - N/A   Clear
6:35 AM 66.2 °F - 57.2 °F 73% 29.98 in 10.0 mi South 9.2 mph - N/A   Clear
6:55 AM 66.2 °F - 57.2 °F 73% 29.98 in 10.0 mi South 9.2 mph - N/A   Clear
7:15 AM 66.2 °F - 57.2 °F 73% 29.98 in 10.0 mi South 11.5 mph - N/A   Clear
7:35 AM 66.2 °F - 57.2 °F 73% 29.99 in 10.0 mi South 10.4 mph - N/A   Clear
7:55 AM 68.0 °F - 57.2 °F 68% 29.99 in 10.0 mi South 13.8 mph - N/A   Clear
8:15 AM 68.0 °F - 57.2 °F 68% 29.99 in 10.0 mi South 13.8 mph - N/A   Clear
8:35 AM 69.8 °F - 57.2 °F 64% 29.99 in 10.0 mi South 13.8 mph - N/A   Clear
8:55 AM 71.6 °F - 57.2 °F 60% 29.99 in 10.0 mi SSW 16.1 mph - N/A   Clear
9:15 AM 71.6 °F - 57.2 °F 60% 29.99 in 10.0 mi SSW 17.3 mph - N/A   Clear
9:35 AM 73.4 °F - 57.2 °F 57% 29.99 in 10.0 mi SSW 16.1 mph - N/A   Clear
9:55 AM 75.2 °F - 59.0 °F 57% 29.99 in 10.0 mi SSW 18.4 mph - N/A   Clear
10:15 AM 78.8 °F - 59.0 °F 51% 29.99 in 10.0 mi SSW 20.7 mph 26.5 mph N/A   Clear
10:35 AM 78.8 °F - 60.8 °F 54% 30.00 in 10.0 mi SSW 17.3 mph 24.2 mph N/A   Clear
10:55 AM 80.6 °F 81.5 °F 60.8 °F 51% 29.99 in 10.0 mi SW 20.7 mph 24.2 mph N/A   Clear
11:15 AM 82.4 °F 82.9 °F 60.8 °F 48% 29.99 in 10.0 mi SSW 18.4 mph 24.2 mph N/A   Clear
11:35 AM 82.4 °F 82.9 °F 60.8 °F 48% 29.99 in 10.0 mi SSW 18.4 mph - N/A   Clear
11:55 AM 82.4 °F 82.9 °F 60.8 °F 48% 30.00 in 10.0 mi SW 18.4 mph 24.2 mph N/A   Clear
12:15 PM 84.2 °F 84.4 °F 60.8 °F 45% 30.00 in 10.0 mi SW 17.3 mph 21.9 mph N/A   Clear
12:35 PM 84.2 °F 84.4 °F 60.8 °F 45% 30.00 in 10.0 mi SW 16.1 mph 20.7 mph N/A   Clear
12:55 PM 84.2 °F 84.4 °F 60.8 °F 45% 30.01 in 10.0 mi WSW 10.4 mph - N/A   Clear
1:15 PM 84.2 °F 84.4 °F 60.8 °F 45% 30.01 in 10.0 mi WSW 5.8 mph - N/A   Clear
1:35 PM 84.2 °F 84.4 °F 60.8 °F 45% 30.01 in 10.0 mi SSW 10.4 mph - N/A   Clear
1:55 PM 87.8 °F 87.6 °F 60.8 °F 40% 30.00 in 10.0 mi West 4.6 mph - N/A   Clear
2:15 PM 87.8 °F 88.5 °F 62.6 °F 43% 30.00 in 10.0 mi NW 8.1 mph - N/A   Clear
2:35 PM 87.8 °F 87.6 °F 60.8 °F 40% 29.99 in 10.0 mi South 6.9 mph - N/A   Clear
2:55 PM 87.8 °F 88.5 °F 62.6 °F 43% 29.99 in 10.0 mi SSW 5.8 mph - N/A   Clear
3:15 PM 87.8 °F 88.5 °F 62.6 °F 43% 29.99 in 10.0 mi Calm Calm - N/A   Clear
3:35 PM 89.6 °F 90.1 °F 62.6 °F 40% 29.99 in 10.0 mi Calm Calm - N/A   Clear
3:55 PM 89.6 °F 90.1 °F 62.6 °F 40% 29.98 in 10.0 mi NE 4.6 mph - N/A   Clear
4:15 PM 89.6 °F 90.1 °F 62.6 °F 40% 29.98 in 10.0 mi East 5.8 mph - N/A   Partly Cloudy
4:35 PM 87.8 °F 88.5 °F 62.6 °F 43% 29.98 in 10.0 mi East 3.5 mph - N/A   Scattered Clouds
4:55 PM 86.0 °F 86.6 °F 62.6 °F 45% 29.98 in 10.0 mi ENE 8.1 mph - N/A   Scattered Clouds
5:15 PM 84.2 °F 85.0 °F 62.6 °F 48% 29.99 in 10.0 mi NE 6.9 mph - N/A   Clear
5:35 PM 82.4 °F 83.4 °F 62.6 °F 51% 29.99 in 10.0 mi NNE 11.5 mph - N/A Thunderstorm Clear
5:55 PM 75.2 °F - 64.4 °F 69% 30.03 in 6.0 mi North 13.8 mph 38.0 mph 0.18 in Thunderstorm Thunderstorm
6:15 PM 71.6 °F - 62.6 °F 73% 30.06 in 7.0 mi ENE 10.4 mph 24.2 mph 0.05 in Thunderstorm Thunderstorm
6:35 PM 69.8 °F - 62.6 °F 78% 30.08 in 10.0 mi SSE 4.6 mph - 0.06 in Thunderstorm Thunderstorm
6:55 PM 71.6 °F - 64.4 °F 78% 30.07 in 9.0 mi North 5.8 mph - 0.07 in Thunderstorm Thunderstorm
7:15 PM 69.8 °F - 64.4 °F 83% 30.02 in 8.0 mi NE 11.5 mph - 0.02 in   Mostly Cloudy
7:35 PM 69.8 °F - 64.4 °F 83% 30.04 in 10.0 mi ESE 8.1 mph - 0.02 in   Partly Cloudy
7:55 PM 69.8 °F - 64.4 °F 83% 30.05 in 6.0 mi Calm Calm - 0.02 in   Clear
8:15 PM 69.8 °F - 64.4 °F 83% 30.07 in 8.0 mi NE 4.6 mph - N/A   Scattered Clouds
8:35 PM 69.8 °F - 64.4 °F 83% 30.08 in 10.0 mi NE 10.4 mph 18.4 mph N/A   Scattered Clouds
8:55 PM 68.0 °F - 62.6 °F 83% 30.09 in 10.0 mi NE 10.4 mph 18.4 mph N/A   Clear
9:15 PM 68.0 °F - 62.6 °F 83% 30.10 in 10.0 mi NE 9.2 mph - N/A   Scattered Clouds
9:35 PM 66.2 °F - 62.6 °F 88% 30.12 in 10.0 mi NE 8.1 mph - N/A   Mostly Cloudy
9:55 PM 66.2 °F - 62.6 °F 88% 30.13 in 10.0 mi NE 8.1 mph - N/A   Overcast
10:15 PM 66.2 °F - 60.8 °F 83% 30.13 in 7.0 mi NE 9.2 mph - N/A   Mostly Cloudy
10:35 PM 66.2 °F - 60.8 °F 83% 30.13 in 5.0 mi ENE 9.2 mph - N/A   Mostly Cloudy
10:55 PM 66.2 °F - 60.8 °F 83% 30.14 in 6.0 mi ENE 6.9 mph - N/A   Overcast
11:15 PM 66.2 °F - 60.8 °F 83% 30.14 in 7.0 mi ENE 6.9 mph - N/A   Overcast
11:35 PM 66.2 °F - 60.8 °F 83% 30.14 in 8.0 mi NE 9.2 mph - N/A   Overcast
11:55 PM 64.4 °F - 60.8 °F 88% 30.16 in 9.0 mi North 9.2 mph - N/A   Overcast